map of LBF home
Great Circle Mapper logo
LBF - Airport
Location
City:  North Platte, Nebraska, United States
Name:North Platte Regional Airport Lee Bird Field
ICAO / IATA:KLBF / LBF
FAA:LBF

Details
Type:Airport (Part 139 Class II)
Use:Public/Civil
Latitude:4107'34"N (41.126222)
Longitude:10041'01"W (-100.683666)
Datum:WGS 1984
Elevation:2777 ft (846 m)
Runways:2
Longest:8001 × 150 ft (2439 × 45.5 m), paved

Time
Time Zone:UTC-6 (DST-5)
Local Time:

Weather
METAR:KLBF 210453Z AUTO 18007KT 10SM CLR 13/04 A3005 RMK AO2 SLP164 T01280039
TAF:KLBF 202329Z 2100/2124 16005KT P6SM SKC
FM211500 17011G16KT P6SM SCT030

Related Locations
Nearby:
Farthest:RRG: 10688 mi / 17200 km
Plaine Corail, Rodrigues Island, MU

Find:

   beyond  
but within

Other Information
Maps:
NOTAMs:
Links:
Sources:

  
flag of United States
flag of Nebraska
  

Airport Diagram

Airport diagram for LBF

Airport diagram PDF

Sectional Chart

Flight Planning
at skyvector.com

Satellite Image

Google Maps Satellite View

 

Copyright © 2004-2014 Karl L. Swartz. All rights reserved.
The Great Circle Mapper name and logo are trademarks of the Great Circle Mapper.
All other trademarks mentioned herein belong to their respective owners.
Please see credits for attibutions and further copyright information.

  Follow gcmap on Facebook Follow gcmap on Twitter

hCard Microformat

Geo Microformat